STARLINK-35984

Last updated on Mon Dec 15 2025 00:02:11 GMT+0000 (Coordinated Universal Time)

1 66814U 25278Z 25348.25003472 -.01429347 00000+0 -74663-2 0 9993 2 66814 42.9973 242.6720 0001739 274.5900 164.5318 15.82509309 3295
UTC large
Height (km)
Speed (km/s)
/
Latitude / Longitude
Inclination (degrees)
Orbital Period (minutes)
Azimuth
Elevation
Range (km)
Doppler Factor

Next 0 passes for location: London (51.5072 / 0.1276)

Sorry there are no passes over London.